Location: Andrea Ville Subdivision
(14.3485°N, 120.9580°E)
Time: 12:27:55
(UTC+00:00)

Cosmos 1340 Rocket - Pass Details

Date: 13 January 2026
Orbit: 486 x 515 km, 81.2° (Epoch: 17 February)

Event Time Altitude Azimuth Distance (km) Brightness Sun altitude
Exits shadow 10:37:14 19° 64° (ENE) 1,253 4.0 -12.6°
Maximum altitude 10:38:03 21° 82° (E) 1,202 3.9 -12.8°
Drops below altitude 10° 10:40:58 10° 132° (SE) 1,740 5.1 -13.4°
Sets 10:43:30 0° 149° (SSE) 2,626 6.2 -14.0°
